Cairns, Australia

8:19 AM AEST on October 20, 2017 (GMT +1000)
Cairns International

Weather History for YBCS - January, 2013

Change the Weather History Date:

Sunday, January 20, 2013

  Actual Average Record
Temperature  
Mean Temperature 80 °F -  
Max Temperature 87 °F 88 °F 93 °F (2008)
Min Temperature 74 °F 74 °F 32 °F (2004)
Cooling Degree Days 16    
Growing Degree Days 30 (Base 50)    
Moisture  
Dew Point 74 °F    
Average Humidity 82    
Maximum Humidity 95    
Minimum Humidity 55    
Precipitation  
Precipitation 0.31 in 0.54 in - ()
Sea Level Pressure  
Sea Level Pressure 29.68 in    
Wind  
Wind Speed 6 mph ()    
Max Wind Speed 14 mph    
Max Gust Speed -    
Visibility 6.8 miles    
Events Rain    
Averages and records for this station are not official NWS values.
T = Trace of Precipitation, MM = Missing Value Source: Averaged Metar Reports

Daily Weather History Graph

Daily Weather History Graph

Search for Another Location

Airport or City:

Trip Planner

Search our weather history database for the weather conditions in past years. The results will help you decide how hot, cold, wet, or windy it might be!

Date:

Astronomy

Jan. 20, 2013 Rise Set
Actual Time 5:58 AM AEST 6:57 PM AEST
Civil Twilight 5:35 AM AEST 7:20 PM AEST
Nautical Twilight 5:07 AM AEST 7:48 PM AEST
Astronomical Twilight 4:39 AM AEST 8:16 PM AEST
Moon 1:20 PM AEST (1/20) 12:15 AM AEST (1/20)
Length of Visible Light 13h 45m
Length of Day
12h 58m
First Quarter, 60% of the Moon is Illuminated
Jan 20
First Quarter
Jan 27
Full
Feb 3
Last Quarter
Feb 10
New
Feb 18
First Quarter

Hourly Weather History & Observations

Time (AEST) Temp. Heat Index Dew Point Humidity Pressure Visibility Wind Dir Wind Speed Gust Speed Precip Events Conditions
12:00 AM 75 °F - 74 °F 94% 29.68 in - SE 8.1 mph - -  
12:00 AM 75.2 °F - 73.4 °F 94% 29.68 in 6.2 mi SE 8.1 mph - N/A   Mostly Cloudy
1:00 AM 75 °F - 73 °F 93% 29.68 in - SSE 10.4 mph - -  
1:00 AM 75.2 °F - 73.4 °F 94% 29.65 in 6.2 mi SSE 10.4 mph - N/A   Mostly Cloudy
1:30 AM 75.2 °F - 73.4 °F 94% 29.65 in 6.2 mi South 4.6 mph - N/A   Mostly Cloudy
2:00 AM 75.2 °F - 73.4 °F 94% 29.65 in 6.2 mi SSE 5.8 mph - N/A   Mostly Cloudy
2:30 AM 75.2 °F - 73.4 °F 94% 29.65 in 6.2 mi SSE 4.6 mph - N/A   Mostly Cloudy
3:00 AM 75 °F - 73 °F 93% 29.65 in - SSE 4.6 mph - -  
3:00 AM 75.2 °F - 73.4 °F 94% 29.65 in 6.2 mi SSE 4.6 mph - N/A   Mostly Cloudy
3:30 AM 75.2 °F - 73.4 °F 94% 29.62 in 6.2 mi South 4.6 mph - N/A   Mostly Cloudy
4:00 AM 75 °F - 73 °F 92% 29.65 in - South 3.5 mph - -  
4:00 AM 75.2 °F - 73.4 °F 94% 29.62 in 6.2 mi South 3.5 mph - N/A   Overcast
4:30 AM 75.2 °F - 73.4 °F 94% 29.65 in 6.2 mi West 3.5 mph - N/A   Overcast
5:00 AM 75.2 °F - 73.4 °F 94% 29.65 in 6.2 mi WNW 3.5 mph - N/A   Mostly Cloudy
5:30 AM 75.2 °F - 73.4 °F 94% 29.65 in 6.2 mi South 3.5 mph - N/A   Mostly Cloudy
6:00 AM 75 °F - 74 °F 95% 29.68 in 16 mi South 3.5 mph - -   Partly Cloudy
6:00 AM 75.2 °F - 73.4 °F 94% 29.68 in 6.2 mi South 3.5 mph - N/A   Mostly Cloudy
6:30 AM 75.2 °F - 73.4 °F 94% 29.68 in 6.2 mi South 5.8 mph - N/A   Mostly Cloudy
7:00 AM 76 °F - 74 °F 91% 29.73 in - West 4.6 mph - -  
7:00 AM 77.0 °F - 73.4 °F 89% 29.71 in 6.2 mi West 4.6 mph - N/A   Mostly Cloudy
7:30 AM 77.0 °F - 75.2 °F 94% 29.71 in 6.2 mi Calm Calm - N/A Rain Light Rain Showers
8:00 AM 78.8 °F - 73.4 °F 83% 29.74 in 6.2 mi SSE 4.6 mph - N/A   Mostly Cloudy
8:30 AM 80.6 °F 85.4 °F 73.4 °F 79% 29.74 in 6.2 mi SSE 4.6 mph - N/A   Mostly Cloudy
9:00 AM 81 °F - 73 °F 70% 29.74 in 16 mi South 5.8 mph - -   Partly Cloudy
9:00 AM 80.6 °F 85.4 °F 73.4 °F 79% 29.74 in 6.2 mi South 5.8 mph - N/A   Mostly Cloudy
9:30 AM 82.4 °F 88.2 °F 73.4 °F 74% 29.74 in 6.2 mi South 3.5 mph - N/A   Mostly Cloudy
10:00 AM 82 °F - 73 °F 69% 29.75 in - NW 4.6 mph - -  
10:00 AM 82.4 °F 88.2 °F 73.4 °F 74% 29.74 in 6.2 mi NW 4.6 mph - N/A   Mostly Cloudy
10:30 AM 82.4 °F 88.2 °F 73.4 °F 74% 29.74 in 6.2 mi North 3.5 mph - N/A   Mostly Cloudy
11:00 AM 86.0 °F 93.4 °F 73.4 °F 66% 29.71 in 6.2 mi NNE 2.3 mph - N/A   Mostly Cloudy
11:30 AM 86.0 °F 93.4 °F 73.4 °F 66% 29.71 in 6.2 mi NNE 3.5 mph - N/A   Mostly Cloudy
12:00 PM 86 °F - 72 °F 55% 29.71 in 19 mi NNE 2.3 mph - -   Partly Cloudy
12:00 PM 86.0 °F 91.8 °F 71.6 °F 62% 29.71 in 6.2 mi NNE 2.3 mph - N/A   Mostly Cloudy
12:30 PM 87.8 °F 95.6 °F 73.4 °F 62% 29.68 in 6.2 mi NE 9.2 mph - N/A   Mostly Cloudy
1:00 PM 86 °F - 73 °F 58% 29.69 in - ENE 6.9 mph - -  
1:00 PM 86.0 °F 93.4 °F 73.4 °F 66% 29.68 in 6.2 mi ENE 6.9 mph - N/A   Mostly Cloudy
1:30 PM 86.0 °F 91.8 °F 71.6 °F 62% 29.65 in 6.2 mi NE 8.1 mph - N/A   Mostly Cloudy
2:00 PM 86.0 °F 93.4 °F 73.4 °F 66% 29.65 in 6.2 mi NE 8.1 mph - N/A   Scattered Clouds
2:30 PM 87.8 °F 95.6 °F 73.4 °F 62% 29.62 in 6.2 mi NNE 10.4 mph - N/A   Scattered Clouds
3:00 PM 87 °F - 75 °F 60% 29.63 in 19 mi NE 10.4 mph - -   Partly Cloudy
3:00 PM 86.0 °F 95.1 °F 75.2 °F 70% 29.62 in 6.2 mi NE 10.4 mph - N/A   Scattered Clouds
3:30 PM 87.8 °F 97.6 °F 75.2 °F 66% 29.62 in 6.2 mi NE 9.2 mph - N/A   Scattered Clouds
4:00 PM 86 °F - 74 °F 59% 29.63 in - NE 8.1 mph - -  
4:00 PM 86.0 °F 93.4 °F 73.4 °F 66% 29.62 in 6.2 mi NE 8.1 mph - N/A   Scattered Clouds
4:30 PM 86.0 °F 95.1 °F 75.2 °F 70% 29.62 in 6.2 mi ENE 8.1 mph - N/A   Scattered Clouds
5:00 PM 80.6 °F 85.4 °F 73.4 °F 79% 29.62 in 5.0 mi South 13.8 mph - N/A   Scattered Clouds
5:19 PM 78.8 °F - 75.2 °F 89% 29.65 in 6.2 mi South 13.8 mph - N/A Rain Rain Showers
5:30 PM 78.8 °F - 75.2 °F 89% 29.65 in 6.2 mi South 13.8 mph - N/A Rain Rain Showers
6:00 PM 77 °F - 75 °F 92% 29.66 in - SSE 12.7 mph - -   Overcast
6:00 PM 77.0 °F - 75.2 °F 94% 29.65 in 6.2 mi SSE 12.7 mph - N/A Rain Light Rain Showers
6:18 PM 78.8 °F - 75.2 °F 89% 29.65 in 6.2 mi SSE 9.2 mph - N/A   Mostly Cloudy
6:30 PM 78.8 °F - 75.2 °F 89% 29.65 in 6.2 mi SSE 8.1 mph - N/A   Mostly Cloudy
7:00 PM 79 °F - 72 °F 75% 29.68 in - South 8.1 mph - -  
7:00 PM 78.8 °F - 73.4 °F 83% 29.65 in 6.2 mi South 8.1 mph - N/A   Mostly Cloudy
7:30 PM 78.8 °F - 75.2 °F 89% 29.68 in 6.2 mi South 9.2 mph - N/A   Mostly Cloudy
8:00 PM 78.8 °F - 75.2 °F 89% 29.68 in 6.2 mi South 10.4 mph - N/A   Mostly Cloudy
8:30 PM 78.8 °F - 73.4 °F 83% 29.68 in 6.2 mi South 9.2 mph - N/A   Mostly Cloudy
9:00 PM 78 °F - 74 °F 85% 29.70 in - South 8.1 mph - -   Overcast
9:00 PM 78.8 °F - 75.2 °F 89% 29.68 in 4.3 mi South 8.1 mph - N/A Rain Light Rain
9:30 PM 78.8 °F - 73.4 °F 83% 29.71 in 4.3 mi SSW 8.1 mph - N/A Rain Light Rain
10:00 PM 78 °F - 75 °F 86% 29.72 in - South 4.6 mph - -  
10:00 PM 78.8 °F - 75.2 °F 89% 29.71 in 4.3 mi South 4.6 mph - N/A Rain Light Rain
10:30 PM 77.0 °F - 75.2 °F 94% 29.71 in 4.3 mi SW 1.2 mph - N/A Rain Light Rain
11:00 PM 77.0 °F - 75.2 °F 94% 29.71 in 3.7 mi SSW 3.5 mph - N/A Rain Rain
11:30 PM 77.0 °F - 73.4 °F 89% 29.71 in 3.7 mi WNW 3.5 mph - N/A Rain Rain